This is the latest recevied weather packets stored in our database for station/object IK2ILW-6. If no packets are shown the sender has not sent any weather packets the latest 10 day(s).
| Time | Temp. | Humidity | Pressure | Rain* | Wind** | Luminosity | Snow |
|---|---|---|---|---|---|---|---|
| 1777819589 | 8.89° C | 57% | 1021.3 hPa | 0 mm | - | 315 W/m² | - |
| 1777819302 | 8.89° C | 59% | 1021.3 hPa | 0 mm | - | 441 W/m² | - |
| 1777819005 | 8.89° C | 59% | 1021.4 hPa | 0 mm | - | 438 W/m² | - |
| 1777818700 | 9.44° C | 60% | 1021.4 hPa | 0 mm | - | 334 W/m² | - |
| 1777818393 | 9.44° C | 62% | 1021.5 hPa | 0 mm | - | 345 W/m² | - |
| 1777818093 | 9.44° C | 61% | 1021.6 hPa | 0 mm | - | 385 W/m² | - |
| 1777817793 | 9.44° C | 63% | 1021.6 hPa | 0 mm | - | 422 W/m² | - |
| 1777817491 | 9.44° C | 61% | 1021.5 hPa | 0 mm | - | 605 W/m² | - |
| 1777817191 | 9.44° C | 63% | 1021.7 hPa | 0 mm | - | 780 W/m² | - |
| 1777816889 | 9.44° C | 63% | 1021.6 hPa | 0 mm | - | 457 W/m² | - |
| 1777816590 | 9.44° C | 66% | 1021.7 hPa | 0 mm | - | 366 W/m² | - |
| 1777816296 | 8.89° C | 64% | 1021.7 hPa | 0 mm | - | 520 W/m² | - |
| 1777815994 | 8.33° C | 65% | 1021.7 hPa | 0 mm | - | 464 W/m² | - |
| 1777815695 | 8.89° C | 63% | 1021.8 hPa | 0 mm | - | 406 W/m² | - |
| 1777815398 | 9.44° C | 62% | 1021.9 hPa | 0 mm | - | 367 W/m² | - |
| 1777815095 | 9.44° C | 60% | 1021.9 hPa | 0 mm | - | 501 W/m² | - |
| 1777814793 | 9.44° C | 65% | 1021.9 hPa | 0 mm | - | 671 W/m² | - |
| 1777814485 | 10° C | 58% | 1021.8 hPa | 0 mm | - | 503 W/m² | - |
| 1777814186 | 10° C | 61% | 1021.8 hPa | 0 mm | - | 469 W/m² | - |
| 1777813887 | 10° C | 62% | 1021.7 hPa | 0 mm | - | 649 W/m² | - |
| 1777813589 | 10.56° C | 58% | 1021.8 hPa | 0 mm | - | 737 W/m² | - |
| 1777813289 | 11.11° C | 54% | 1021.8 hPa | 0 mm | - | 812 W/m² | - |
| 1777812986 | 11.11° C | 58% | 1021.9 hPa | 0 mm | - | 691 W/m² | - |
| 1777812686 | 11.11° C | 58% | 1021.7 hPa | 0 mm | - | 837 W/m² | - |
| 1777812402 | 10.56° C | 59% | 1021.7 hPa | 0 mm | - | 879 W/m² | - |
* Rain latest hour (hover to see other rain measurements)
** Current wind speed in m/s (hover to see current wind gust speed)